Showing default

YUNHAI 2-1D, 43912

Orbit data source: Space-Track

YUNHAI 2-1D, 43912 is a payload satellite owned by CASC (CN) in LEO that was launched on Sat, 29 Dec 2018 UTC via a CHANG ZHENG 2D/YZ-3 launch vehicle from the Jiuquan Satellite Launch Center, China (JSC). Payload-class satellites include a variety of spacecraft equipped with specific instruments for various scientific and technological missions. These include communications satellites like Starlink; space stations such as the ISS; scientific satellites like the Hubble; Earth observation satellites from companies like Planet Labs, Umbra, and HawkEye 360; GPS; miniature CubeSats for education and research; and military/defense satellites.

Loading next visibility...
Identifier
43912, 2018-112D
Orbit
LEO
Country
Flag of CNCN / PRC
Related business
Manufacturer
DFH Shenzhen
Mission
Operational Defense Meteo Radio Occ.
Bus & Motor
YH-2, Unknown motor
Mass
~100 kg wet, ~100 kg dry
Launch date (UTC)
2018-12-29 (7 years ago)
Launch vehicle
CHANG ZHENG 2D/YZ-3
Launch site
Jiuquan Satellite Launch Center, China (JSC)
Object type
Payload
Rocket body
Debris
Shape & HBR
Box + 2 Pan, 0.5 m
Radar Cross Section
0.166 m², Large (>1 m²)

Expand to show TLE details & history
Last TLE update: 6 hours ago

TLE from 6 hours ago
0 YUNHAI 2-1D
1 43912U 18112D   26035.18539703  .00000147  00000-0  12086-3 0  9996
2 43912  50.0098 131.9909 0015716 237.4099 122.5299 14.28965269368569
Epoch: 2026-02-04T04:26Z
TLE epoch observation values (Epoch: 2026-02-04T04:26:58.303Z)
Latitude
-0.00003°
Longitude
-69.10766°
Altitude
801.798 km
Speed
7.451 km/s
True Right ascension
08h 47m 57s
True Declination
0° 00' 00"
Sunlit
Object was in full shadow at epoch
Visualization orbit readout
Latitude
Unknown
Longitude
Unknown
Altitude
Unknown
Speed
Unknown
Apparent Right ascension
Unknown
Apparent Declination
Unknown
Sunlit
N/A
Visualization observer readout
Local Sidereal Time
12:23:32
Azimuth
Unknown
Elevation
Unknown
Doppler factor
Unknown
Orbital elements
Apogee altitude
807.205 km
Perigee altitude
784.655 km
Semi-major axis
7,174.067 km
Eccentricity
0.00157
Inclination
50.0098°
RAAN
131.9909°
Arg. of periapsis
237.4099°
True anomaly
122.68158°
Mean anomaly
122.5299°
Eccentric anomaly
122.60575°
Mean motion
3.57187 °/min
Orbital period
100.79 mins
BSTAR
0.00012086
Loading maneuver chart data...
Computing Atmospheric mass density...
Loading historical data...
Loading historical data...
Loading historical data...
Loading historical data...
Loading historical data...
Loading historical data...
Loading historical data...

Documentation

Showing up to 5 results
|